Location: Br�ttisellen
(47.4227°N, 8.6287°E)
Time: 23:45:31
(UTC+00:00)

MINOTAUR IV R/B - Pass Details

Date: 09 April 2020
Orbit: 618 x 646 km, 72.0° (Epoch: 14 May)

Event Time Altitude Azimuth Distance (km) Brightness Sun altitude
Rises 19:30:10 0° 198° (SSW) 2,879 7.9 -14.0°
Reaches altitude 10° 19:32:24 10° 196° (SSW) 1,978 7.0 -14.3°
Maximum altitude 19:36:49 73° 113° (ESE) 653 4.4 -14.9°
Drops below altitude 10° 19:41:17 10° 29° (NNE) 1,998 7.2 -15.6°
Sets 19:43:33 0° 28° (NNE) 2,911 8.1 -15.9°
